• In Uzbekistan
  • List of Countries
  • For 7 days
  • Water Temperature
  • Weather Map
  • Weather Widgets
  • user-avatar
    Login

    Hourly Weather Pekin

    Today, 17 November, Sunday

    Time Temperature Precipitation Wind Pressure Humidity
    00:00 +7°C° 0 mm 2 mps 762 mmHg 71%
    01:00 +7°C° 0 mm 2 mps 761 mmHg 73%
    02:00 +7°C° 0 mm 2 mps 761 mmHg 68%
    03:00 +7°C° 0 mm 2 mps 761 mmHg 69%
    04:00 +6°C° 0 mm 2 mps 760 mmHg 69%
    05:00 +6°C° 0 mm 2 mps 760 mmHg 70%
    06:00 +6°C° 0 mm 2 mps 760 mmHg 69%
    07:00 +6°C° 0 mm 2 mps 760 mmHg 68%
    08:00 +7°C° 0 mm 2 mps 761 mmHg 70%
    09:00 +8°C° 0 mm 2 mps 761 mmHg 65%
    10:00 +9°C° 0 mm 2 mps 761 mmHg 60%
    11:00 +11°C° 0 mm 1 mps 761 mmHg 55%
    12:00 +12°C° 0 mm 2 mps 761 mmHg 52%
    13:00 +13°C° 0 mm 2 mps 761 mmHg 48%
    14:00 +12°C° 0 mm 3 mps 760 mmHg 45%
    15:00 +11°C° 0 mm 4 mps 761 mmHg 34%
    16:00 +10°C° 0 mm 6 mps 762 mmHg 23%
    17:00 +9°C° 0 mm 7 mps 762 mmHg 13%
    18:00 +6°C° 0 mm 8 mps 764 mmHg 14%
    19:00 +3°C° 0 mm 9 mps 765 mmHg 15%
    20:00 0°C° 0 mm 9 mps 766 mmHg 17%
    21:00 -1°C° 0 mm 8 mps 767 mmHg 16%
    22:00 -2°C° 0 mm 7 mps 767 mmHg 16%
    23:00 -3°C° 0 mm 6 mps 768 mmHg 15%

    Tomorrow, 18 November, Monday

    Time Temperature Precipitation Wind Pressure Humidity
    00:00 -4°C° 0 mm 6 mps 768 mmHg 15%
    01:00 -4°C° 0 mm 6 mps 768 mmHg 15%
    02:00 -4°C° 0 mm 6 mps 769 mmHg 15%
    03:00 -4°C° 0 mm 5 mps 769 mmHg 15%
    04:00 -4°C° 0 mm 4 mps 769 mmHg 15%
    05:00 -4°C° 0 mm 4 mps 769 mmHg 16%
    06:00 -4°C° 0 mm 3 mps 769 mmHg 16%
    07:00 -4°C° 0 mm 3 mps 769 mmHg 16%
    08:00 -4°C° 0 mm 3 mps 769 mmHg 16%
    09:00 -1°C° 0 mm 3 mps 769 mmHg 14%
    10:00 0°C° 0 mm 3 mps 769 mmHg 12%
    11:00 +1°C° 0 mm 3 mps 769 mmHg 10%
    12:00 +2°C° 0 mm 3 mps 768 mmHg 10%
    13:00 +3°C° 0 mm 3 mps 768 mmHg 9%
    14:00 +3°C° 0 mm 3 mps 767 mmHg 9%
    15:00 +2°C° 0 mm 3 mps 767 mmHg 10%
    16:00 +3°C° 0 mm 2 mps 767 mmHg 12%
    17:00 +2°C° 0 mm 2 mps 767 mmHg 13%
    18:00 +1°C° 0 mm 2 mps 767 mmHg 14%
    19:00 +2°C° 0 mm 1 mps 767 mmHg 14%
    20:00 +1°C° 0 mm 1 mps 767 mmHg 15%
    21:00 +1°C° 0 mm 1 mps 767 mmHg 16%
    22:00 +1°C° 0 mm 1 mps 768 mmHg 17%
    23:00 0°C° 0 mm 1 mps 768 mmHg 18%

    Day after tomorrow, 19 November, Tuesday

    Time Temperature Precipitation Wind Pressure Humidity
    00:00 0°C° 0 mm 1 mps 768 mmHg 18%
    01:00 0°C° 0 mm 1 mps 768 mmHg 18%
    02:00 0°C° 0 mm 1 mps 768 mmHg 18%
    03:00 0°C° 0 mm 1 mps 767 mmHg 19%
    04:00 0°C° 0 mm 1 mps 767 mmHg 19%
    05:00 -1°C° 0 mm 1 mps 767 mmHg 20%
    06:00 -1°C° 0 mm 1 mps 768 mmHg 20%
    07:00 0°C° 0 mm 1 mps 768 mmHg 20%
    08:00 0°C° 0 mm 1 mps 768 mmHg 20%
    09:00 +2°C° 0 mm 1 mps 768 mmHg 17%
    10:00 +3°C° 0 mm 2 mps 768 mmHg 15%
    11:00 +5°C° 0 mm 2 mps 768 mmHg 13%
    12:00 +6°C° 0 mm 2 mps 768 mmHg 13%
    13:00 +6°C° 0 mm 2 mps 767 mmHg 12%
    14:00 +7°C° 0 mm 2 mps 767 mmHg 11%
    15:00 +6°C° 0 mm 2 mps 767 mmHg 13%
    16:00 +5°C° 0 mm 2 mps 767 mmHg 15%
    17:00 +5°C° 0 mm 2 mps 767 mmHg 16%
    18:00 +5°C° 0 mm 1 mps 767 mmHg 17%
    19:00 +4°C° 0 mm 1 mps 767 mmHg 18%
    20:00 +4°C° 0 mm 1 mps 767 mmHg 18%
    21:00 +3°C° 0 mm 1 mps 767 mmHg 19%
    22:00 +3°C° 0 mm 1 mps 767 mmHg 19%
    23:00 +3°C° 0 mm 1 mps 767 mmHg 20%

    20 November, Wednesday

    Time Temperature Precipitation Wind Pressure Humidity
    00:00 +2°C° 0 mm 1 mps 767 mmHg 21%
    01:00 +2°C° 0 mm 1 mps 767 mmHg 22%
    02:00 +1°C° 0 mm 0 mps 767 mmHg 23%
    03:00 +2°C° 0 mm 1 mps 767 mmHg 23%
    04:00 +1°C° 0 mm 1 mps 766 mmHg 24%
    05:00 +1°C° 0 mm 1 mps 766 mmHg 25%
    06:00 +1°C° 0 mm 1 mps 766 mmHg 25%
    07:00 +1°C° 0 mm 1 mps 766 mmHg 25%
    08:00 -1°C° 0 mm 2 mps 767 mmHg 25%
    09:00 +2°C° 0 mm 2 mps 767 mmHg 23%
    10:00 +4°C° 0 mm 2 mps 767 mmHg 20%
    11:00 +6°C° 0 mm 2 mps 766 mmHg 17%
    12:00 +8°C° 0 mm 1 mps 766 mmHg 16%
    13:00 +9°C° 0 mm 1 mps 765 mmHg 16%
    14:00 +9°C° 0 mm 0 mps 765 mmHg 15%
    15:00 +8°C° 0 mm 0 mps 765 mmHg 17%
    16:00 +7°C° 0 mm 0 mps 765 mmHg 19%
    17:00 +6°C° 0 mm 0 mps 765 mmHg 20%
    18:00 +5°C° 0 mm 0 mps 766 mmHg 21%
    19:00 +6°C° 0 mm 1 mps 766 mmHg 22%
    20:00 +6°C° 0 mm 1 mps 766 mmHg 23%
    21:00 +5°C° 0 mm 1 mps 767 mmHg 23%
    22:00 +5°C° 0 mm 1 mps 767 mmHg 24%
    23:00 +5°C° 0 mm 1 mps 767 mmHg 25%

    21 November, Thursday

    Time Temperature Precipitation Wind Pressure Humidity
    00:00 +5°C° 0 mm 1 mps 767 mmHg 26%
    01:00 +4°C° 0 mm 1 mps 767 mmHg 26%
    02:00 +4°C° 0 mm 1 mps 767 mmHg 27%
    03:00 +4°C° 0 mm 1 mps 767 mmHg 27%
    04:00 +4°C° 0 mm 1 mps 766 mmHg 27%
    05:00 +3°C° 0 mm 1 mps 766 mmHg 28%
    06:00 +3°C° 0 mm 1 mps 766 mmHg 28%
    07:00 +4°C° 0 mm 1 mps 766 mmHg 29%
    08:00 +4°C° 0 mm 1 mps 766 mmHg 29%
    09:00 +5°C° 0 mm 1 mps 766 mmHg 27%
    10:00 +7°C° 0 mm 1 mps 766 mmHg 24%
    11:00 +7°C° 0 mm 2 mps 766 mmHg 22%
    12:00 +9°C° 0 mm 1 mps 765 mmHg 22%
    13:00 +10°C° 0 mm 1 mps 765 mmHg 22%
    14:00 +11°C° 0 mm 1 mps 764 mmHg 22%
    15:00 +10°C° 0 mm 1 mps 764 mmHg 25%
    16:00 +9°C° 0 mm 1 mps 764 mmHg 28%
    17:00 +7°C° 0 mm 0 mps 764 mmHg 31%
    18:00 +8°C° 0 mm 1 mps 764 mmHg 32%
    19:00 +7°C° 0 mm 1 mps 764 mmHg 33%
    20:00 +7°C° 0 mm 1 mps 764 mmHg 34%
    21:00 +6°C° 0 mm 1 mps 764 mmHg 36%
    22:00 +6°C° 0 mm 1 mps 764 mmHg 37%
    23:00 +6°C° 0 mm 1 mps 764 mmHg 38%

    22 November, Friday

    Time Temperature Precipitation Wind Pressure Humidity
    00:00 +6°C° 0 mm 1 mps 764 mmHg 39%
    01:00 +5°C° 0 mm 1 mps 763 mmHg 40%
    02:00 +4°C° 0 mm 2 mps 763 mmHg 41%
    03:00 +5°C° 0 mm 1 mps 763 mmHg 42%
    04:00 +4°C° 0 mm 1 mps 762 mmHg 43%
    05:00 +4°C° 0 mm 1 mps 762 mmHg 44%
    06:00 +4°C° 0 mm 1 mps 762 mmHg 45%
    07:00 +5°C° 0 mm 1 mps 762 mmHg 45%
    08:00 +5°C° 0 mm 1 mps 762 mmHg 45%
    09:00 +6°C° 0 mm 1 mps 762 mmHg 43%
    10:00 +8°C° 0 mm 1 mps 762 mmHg 41%
    11:00 +9°C° 0 mm 1 mps 762 mmHg 39%
    12:00 +10°C° 0 mm 1 mps 761 mmHg 40%
    13:00 +12°C° 0 mm 1 mps 760 mmHg 41%
    14:00 +13°C° 0 mm 2 mps 759 mmHg 42%
    15:00 +12°C° 0 mm 2 mps 759 mmHg 46%
    16:00 +11°C° 0 mm 1 mps 759 mmHg 50%
    17:00 +10°C° 0 mm 1 mps 760 mmHg 53%
    18:00 +10°C° 0 mm 1 mps 760 mmHg 53%
    19:00 +9°C° 0 mm 1 mps 760 mmHg 53%
    20:00 +9°C° 0 mm 1 mps 761 mmHg 53%
    21:00 +8°C° 0 mm 1 mps 761 mmHg 53%
    22:00 +7°C° 0 mm 2 mps 762 mmHg 53%
    23:00 +7°C° 0 mm 2 mps 762 mmHg 52%
    Show more